Location: *
(34.6903°N, 135.5184°E)
Time: 22:34:30
(UTC+00:00)

Cosmos 2227 Rocket - Pass Details

Date: 22 September 2019
Orbit: 837 x 847 km, 71.0° (Epoch: 16 October)

Event Time Altitude Azimuth Distance (km) Brightness Sun altitude
Rises 20:10:20 0° 339° (NNW) 3,412 5.2 -8.2°
Reaches altitude 10° 20:12:47 10° 340° (NNW) 2,474 4.5 -7.7°
Maximum altitude 20:18:29 85° 68° (ENE) 854 2.3 -6.5°
Drops below altitude 10° 20:24:08 10° 159° (SSE) 2,458 4.9 -5.3°
Sets 20:26:34 0° 159° (SSE) 3,388 5.6 -4.8°
